Regional Weather Roundup
Issued by NWS

Home | Current Version | Previous Version | Graphics & Text | Print | Product List | Glossary On
Versions: 1 2 3 4 5 6 7 8 9 10 11 12 13 14 15 16 17 18 19 20 21 22 23 24 25 26 27 28 29 30 31 32 33 34 35 36 37 38 39 40 41 42 43 44 45 46 47 48 49 50
000
ASUS43 KOAX 182310
RWRNE

WEATHER ROUNDUP FOR NEBRASKA
NATIONAL WEATHER SERVICE OMAHA NE
600 PM CDT FRI APR 18 2014

NOTES: SATELLITE DATA IS BEING USED TO AUGMENT CLOUD COVER ABOVE
       12000 FEET.
       "FAIR" INDICATES FEW OR NO CLOUDS BELOW 12,000 FEET WITH NO
       SIGNIFICANT WEATHER AND/OR OBSTRUCTIONS TO VISIBILITY.

  * THESE STATIONS DO NOT REPORT WEATHER SUCH AS RAIN...SNOW OR FOG.

NEZ001>004-019>022-054>056-190000-
NEBRASKA PANHANDLE

CITY           SKY/WX    TMP DP  RH WIND       PRES   REMARKS
SCOTTSBLUFF    PTSUNNY   81  33  17 S22G29    29.76F
ALLIANCE       CLOUDY    77  32  19 S22G32    29.77F
CHADRON        CLOUDY    80  39  23 S24G31    29.67F
KIMBALL        PTSUNNY   77  19  11 S16       29.84F
SIDNEY         PTSUNNY   78  27  15 S22       29.85F
$$

NEZ057>060-069>072-079>082-190000-
SOUTHWEST NEBRASKA

CITY           SKY/WX    TMP DP  RH WIND       PRES   REMARKS
NORTH PLATTE   MOSUNNY   72  42  34 S22G31    29.87F
IMPERIAL       MOSUNNY   77  36  22 S25G33    29.85F
LEXINGTON      CLOUDY    72  42  34 S26G33    29.94F
MCCOOK         MOSUNNY   72  44  36 S23G36    29.92F
OGALLALA       MOSUNNY   77  36  22 S17G31    29.84F
$$

NEZ005>010-023>029-035>040-094-190000-
NORTH CENTRAL NEBRASKA

CITY           SKY/WX    TMP DP  RH WIND       PRES   REMARKS
VALENTINE      CLOUDY    74  37  26 S31G39    29.77F
AINSWORTH      CLOUDY    70  41  34 S30G39    29.83S
BROKEN BOW     CLOUDY    68  42  38 S24G39    29.92F
O`NEILL        CLOUDY    69  36  30 S21G39    29.91F
ORD            CLOUDY    70  41  34 S26G36    29.93F
THEDFORD       CLOUDY    74  37  26 S26G35    29.86F
$$

NEZ041-046>049-061>064-073>077-083>087-190000-
SOUTH CENTRAL NEBRASKA

CITY           SKY/WX    TMP DP  RH WIND       PRES   REMARKS
GRAND ISLAND   CLOUDY    70  41  34 S23G35    30.00F
AURORA         PTSUNNY   69  42  37 S18G26    30.01F
HASTINGS       CLOUDY    69  39  33 S23G30    30.00F
HEBRON         MOSUNNY   70  39  32 S20G26    30.05S
HOLDREGE       CLOUDY    70  40  34 S23G32    29.97S
KEARNEY *      CLOUDY    70  43  37 S25       29.98F
YORK           PTSUNNY   68  41  37 S21G29    30.03F
$$

NEZ011>018-030>034-042>045-190000-
NORTHEAST NEBRASKA

CITY           SKY/WX    TMP DP  RH WIND       PRES   REMARKS
NORFOLK        MOSUNNY   68  39  34 S22G36    29.99F
ALBION         PTSUNNY   67  39  35 S24G32    29.99F
BLAIR          SUNNY     68  37  31 S24G31    30.08F
COLUMBUS *     MOSUNNY   66  41  39 S20G28    30.04S
FREMONT        SUNNY     70  36  28 SE17G23   30.07S
TEKAMAH        MOSUNNY   71  37  28 S25       30.07F
$$

NEZ050>053-065>068-078-088>093-190000-
SOUTHEAST NEBRASKA

CITY           SKY/WX    TMP DP  RH WIND       PRES   REMARKS
LINCOLN        SUNNY     70  39  32 S21G30    30.07F
OMAHA EPPLEY   MOSUNNY   69  37  30 S20       30.09F
BEATRICE       SUNNY     68  39  34 S15G28    30.08F
NEBRASKA CITY  SUNNY     68  39  34 S20G25    30.12F
PLATTSMOUTH    SUNNY     69  34  27 S16       30.11S
$$

NEZ044-045-051>053-067-190000-
OMAHA AREA

CITY           SKY/WX    TMP DP  RH WIND       PRES   REMARKS
OMAHA EPPLEY   MOSUNNY   69  37  30 S20       30.09F
BLAIR          SUNNY     68  37  31 S24G31    30.08F
FREMONT        SUNNY     70  36  28 SE17G23   30.07S
MILLARD        SUNNY     68  39  33 S14G21    30.09S
OFFUTT AFB     SUNNY     69  39  34 SE16      30.09F
PLATTSMOUTH    SUNNY     69  34  27 S16       30.11S
WAHOO          FAIR      70  34  26 S24G31    30.07S
$$



USA.gov is the U.S. government's official web portal to all federal, state and local government web resources and services.